RH
15 14 10 6 4 3 3 3 3 2 2 2 2 2 2 2 3 4 6 6 6 5 3 3 4 5 6 6 3 3 5 11 16 19 22 24 24 21 22 27 26 26 28 29 24 23 34 35 29 38 46 46 46 51 63 73 74 76 78 75 71 69 66 64 64 65 70 70 70 70 68 72 73 70 72 75 77 74 64 57 57 59 51 45 51 53 50 49
14 12 8 5 4 3 3 3 3 2 2 3 3 3 3 3 2 2 3 4 6 5 4 3 2 3 4 6 5 3 2 6 12 16 20 22 23 20 19 24 26 27 29 28 27 23 25 27 24 32 42 43 44 46 54 66 72 74 76 78 75 72 72 73 73 73 76 77 74 71 70 72 72 70 70 72 74 75 73 64 57 52 46 45 49 52 51 49
13 11 7 5 4 3 3 3 3 3 4 5 5 6 5 5 3 3 2 2 4 4 4 3 3 2 2 4 4 4 2 3 7 12 17 19 22 21 17 21 25 26 28 28 28 24 23 23 25 33 40 42 45 49 55 62 67 70 72 77 76 75 76 76 76 75 75 77 77 73 71 70 68 69 68 67 69 70 72 68 54 42 40 44 44 48 50 47
11 10 8 5 4 3 3 4 4 5 5 6 6 6 6 5 5 4 3 2 2 3 4 4 3 2 2 3 3 4 3 2 4 8 13 16 19 21 17 17 24 26 26 29 27 25 22 21 27 36 38 39 41 43 49 58 66 66 64 68 73 74 76 79 76 70 68 70 75 75 72 69 65 68 66 64 67 68 68 65 55 41 37 41 39 43 47 46
11 10 8 6 4 3 4 5 6 6 6 6 6 6 6 5 5 4 3 3 3 3 3 4 3 3 3 3 4 4 5 8 6 4 8 13 16 19 18 16 22 25 25 27 27 27 23 21 31 37 37 35 33 34 39 50 62 65 61 63 68 71 75 81 74 63 63 66 70 75 75 70 66 66 64 64 70 73 73 69 62 51 42 42 39 39 43 46
10 10 9 7 5 3 4 6 6 7 6 6 6 6 6 5 5 5 4 3 3 3 3 4 4 4 6 6 8 9 11 19 14 6 6 9 13 16 17 17 20 24 25 25 27 27 22 24 33 36 33 30 29 35 39 46 57 63 63 62 64 67 73 78 73 63 63 67 67 73 76 71 67 64 60 65 71 74 77 74 70 62 50 44 41 39 39 47
9 10 9 8 7 4 4 6 6 7 7 7 7 6 6 6 6 5 5 4 3 3 3 3 4 6 9 8 11 13 16 22 19 12 9 6 9 12 14 15 18 23 25 25 27 27 23 26 34 33 27 26 32 38 41 47 56 64 66 64 62 64 69 73 73 68 63 67 68 71 75 73 68 63 60 65 70 71 74 75 72 69 57 44 42 39 38 54
8 9 9 8 8 5 3 5 6 7 7 7 7 7 8 8 7 7 6 5 4 4 4 4 7 10 13 14 15 17 18 21 20 18 14 9 7 9 11 12 15 21 25 25 26 26 23 27 35 31 25 31 40 42 44 50 56 63 68 65 62 63 67 70 73 71 63 64 67 70 75 75 69 63 62 65 69 70 70 72 69 70 64 48 40 37 45 66
8 8 9 9 8 6 4 5 6 6 7 7 7 8 10 10 10 9 8 6 5 5 5 6 11 14 17 18 18 19 19 18 19 19 16 13 8 6 9 8 11 19 24 25 26 25 22 31 35 26 28 41 48 47 49 54 56 63 67 66 65 64 65 67 72 74 66 64 66 68 73 76 68 59 59 61 68 71 65 69 72 69 65 50 41 46 62 78
10 8 8 8 8 7 5 4 5 6 7 7 8 9 12 13 14 13 11 8 5 6 7 10 15 16 18 19 18 20 19 16 17 16 14 13 9 6 8 7 8 16 23 24 25 24 22 32 32 25 40 55 52 51 52 55 58 62 65 67 67 67 67 65 70 76 71 67 67 68 72 75 67 57 60 62 67 70 62 66 72 68 59 47 49 63 76 79
11 11 9 8 8 8 6 5 5 6 7 7 8 10 14 16 17 16 15 11 8 7 9 13 15 15 17 18 18 20 17 14 14 12 10 11 8 6 7 7 7 13 23 24 23 24 23 28 26 29 52 60 52 51 54 56 60 65 65 66 68 69 71 68 69 77 76 73 72 72 74 75 67 58 62 67 69 71 66 66 70 62 51 46 56 72 78 74
8 11 10 9 8 8 7 5 5 6 7 7 8 11 14 17 18 18 17 16 14 12 12 14 15 17 19 19 19 20 16 13 11 9 9 8 6 7 8 8 7 12 22 24 24 24 23 23 23 33 53 57 52 54 56 56 61 66 63 63 69 71 73 72 72 79 79 77 77 77 80 77 67 60 61 67 73 74 67 70 75 61 47 48 59 73 75 68
5 7 9 10 9 8 8 6 5 6 7 7 8 11 13 16 18 20 20 20 19 18 17 17 19 21 24 22 20 21 18 11 8 8 7 6 6 8 9 8 6 11 21 25 25 25 22 20 24 38 52 55 57 58 57 54 56 62 61 61 68 71 73 74 79 84 81 78 76 77 84 78 63 58 61 67 75 76 64 66 77 64 49 52 62 75 74 65
5 5 6 9 9 8 8 7 6 6 6 7 8 10 12 14 16 19 21 21 20 18 19 20 22 23 25 23 20 21 17 9 7 7 7 7 8 9 9 7 5 10 21 25 26 25 21 19 23 38 51 56 58 57 56 51 44 49 55 57 64 71 74 77 83 86 84 81 77 75 80 76 63 58 61 69 75 75 66 63 73 66 53 57 67 78 75 65
5 5 5 6 8 9 8 8 7 6 6 7 8 9 11 12 14 16 18 21 21 20 20 21 22 24 26 25 21 18 13 8 6 6 8 8 9 10 8 7 6 10 19 25 26 25 21 19 21 33 45 51 49 46 46 41 33 37 48 53 60 69 71 74 82 84 82 81 75 74 77 75 72 63 61 71 75 75 72 67 70 64 56 62 71 77 75 68
6 6 5 5 6 8 8 8 8 7 6 6 8 9 10 10 12 14 15 18 22 22 22 23 23 26 27 26 22 19 14 11 8 7 8 8 9 9 8 7 6 9 18 24 26 24 22 20 20 28 38 41 37 34 33 31 30 33 38 41 50 64 68 68 73 77 78 77 73 75 78 76 75 69 65 72 75 74 74 70 70 65 59 66 71 72 72 71
6 6 6 5 5 6 7 8 8 7 6 6 7 8 9 9 10 12 14 17 20 21 22 23 23 26 25 23 22 21 16 13 12 11 9 9 10 9 7 7 6 8 15 22 25 24 22 21 21 24 31 35 32 30 30 30 32 31 28 30 35 47 62 65 63 66 70 72 75 74 70 67 68 68 68 73 75 74 72 69 70 68 65 68 71 70 72 74
6 6 6 6 5 5 6 7 8 8 7 6 7 8 8 9 9 12 16 18 19 20 21 21 22 25 24 21 22 22 17 14 15 15 12 11 11 10 8 7 6 7 11 17 22 22 23 22 22 23 28 33 30 28 31 31 31 28 25 28 28 32 52 64 60 61 63 65 74 72 62 62 66 67 68 70 72 73 72 70 69 70 72 72 71 71 75 78
6 6 6 6 6 5 5 6 7 7 8 7 6 7 7 8 9 10 15 17 18 21 24 25 25 26 25 22 24 24 18 14 14 15 15 13 11 10 9 7 7 6 7 12 17 21 23 23 22 25 27 31 30 27 28 28 28 26 22 23 27 26 39 58 62 61 62 63 71 73 67 68 70 67 66 65 68 70 71 71 68 67 71 72 71 71 76 82
6 6 5 6 6 6 5 5 6 7 7 7 6 7 7 8 8 9 12 13 15 18 21 24 23 23 23 23 22 20 16 14 14 16 18 16 12 11 10 8 7 6 6 8 12 17 22 23 23 25 27 28 27 26 25 26 26 24 20 19 23 21 26 47 63 65 66 68 73 76 73 72 70 68 68 66 67 68 68 68 68 67 67 68 70 70 74 83
8 6 6 6 6 6 6 5 6 6 7 7 7 6 7 7 8 9 10 12 14 14 18 21 20 20 22 22 21 18 16 15 14 16 18 16 12 11 10 9 8 7 6 6 8 13 19 24 23 23 26 26 26 26 25 26 25 22 20 17 20 21 23 41 60 64 67 70 72 75 76 73 70 69 70 69 70 69 67 67 68 70 70 68 69 70 74 80
12 10 7 6 5 6 6 6 5 6 6 7 7 6 7 7 7 9 13 16 15 13 16 19 20 20 20 19 19 18 17 15 13 15 16 14 12 11 10 9 8 7 7 6 7 9 15 23 26 23 23 26 27 25 25 25 25 22 18 17 19 21 26 42 55 59 64 69 70 72 73 72 73 74 73 72 72 71 71 69 69 72 73 72 70 72 75 77
14 14 12 8 6 6 6 6 6 6 6 7 7 7 7 7 6 9 15 17 15 13 15 18 19 19 19 19 19 19 18 16 14 12 12 12 12 11 10 8 7 7 7 6 6 8 12 18 24 23 21 24 25 25 26 25 23 20 17 18 21 21 28 41 51 53 57 62 63 66 68 67 70 73 72 71 71 72 73 71 70 70 71 72 73 74 76 78
16 16 16 13 9 6 6 7 6 6 6 6 8 7 7 7 6 10 16 16 14 13 14 17 18 18 19 19 20 21 19 18 16 11 11 13 12 11 10 9 8 9 10 9 8 9 10 12 18 19 17 21 25 26 26 22 20 19 18 21 23 24 28 37 47 50 51 55 56 62 67 60 58 61 60 62 65 68 70 70 69 69 69 71 72 71 72 76
17 17 18 18 14 9 7 7 7 6 6 6 7 7 8 7 6 10 15 15 15 14 14 16 17 18 19 18 19 20 19 19 17 14 16 16 14 13 14 12 11 13 15 13 12 10 9 9 13 14 15 20 25 25 23 20 18 17 19 23 22 23 26 34 46 49 52 59 57 62 64 51 46 51 53 56 58 61 65 66 67 69 70 70 69 67 67 71
16 16 17 19 18 14 8 7 7 7 6 7 7 8 8 8 8 10 12 17 19 16 14 15 16 17 18 17 19 18 17 19 18 16 18 17 16 16 16 15 15 16 16 16 14 12 10 10 12 14 17 22 24 22 20 18 17 15 17 19 17 17 21 32 46 51 54 59 57 59 61 51 44 42 45 50 53 56 60 61 63 66 67 67 68 68 68 69
14 15 16 18 20 18 12 8 8 7 7 7 7 8 9 8 9 9 13 22 25 19 14 16 17 17 17 17 18 17 17 18 17 16 17 16 16 17 16 16 16 16 17 16 15 14 13 13 14 15 17 21 21 19 18 16 15 14 13 15 15 14 17 27 44 52 50 52 56 58 60 62 54 38 36 43 46 49 52 53 57 61 63 64 66 67 67 68
13 14 15 17 18 20 17 11 8 8 8 7 7 8 9 9 9 12 19 27 27 22 18 17 17 17 17 17 17 17 17 16 16 16 16 15 16 16 15 15 15 16 17 17 16 14 13 14 15 15 15 16 16 16 16 13 12 13 11 12 15 15 18 27 44 54 51 52 59 59 59 63 53 37 33 38 41 43 46 50 54 57 61 62 63 65 66 67
13 13 16 18 18 20 21 15 9 8 8 8 8 9 10 10 10 14 24 28 25 22 21 19 18 16 16 16 16 16 16 16 17 15 14 14 16 16 15 15 15 16 17 16 16 15 13 14 13 13 14 14 15 15 13 12 11 11 11 11 16 20 24 34 50 59 57 53 53 51 54 54 42 35 35 38 43 46 47 51 52 53 57 59 60 62 65 67
13 12 15 20 20 20 22 19 12 9 9 9 8 9 11 11 12 18 26 26 23 21 19 19 18 15 16 16 15 15 16 16 17 16 15 14 15 16 15 15 16 17 17 15 14 15 14 13 12 12 13 13 14 12 11 11 10 11 11 11 20 30 36 47 61 65 59 53 52 51 51 49 39 32 35 40 47 50 51 51 49 47 50 53 55 58 62 64
11 12 16 20 22 21 22 21 16 11 10 10 8 9 11 12 15 21 24 23 23 21 18 19 18 15 15 15 15 15 15 16 17 17 17 14 13 15 15 15 17 16 17 15 13 13 14 13 12 12 13 12 13 11 11 11 10 12 12 12 27 48 56 61 66 64 53 47 52 53 51 53 45 32 34 42 43 46 50 50 47 45 47 50 52 54 57 60
9 14 18 19 21 21 22 22 18 13 11 10 10 9 11 15 17 17 18 21 22 22 20 19 19 17 16 15 15 15 15 15 15 16 17 15 13 15 14 15 16 16 16 15 14 14 13 13 13 13 13 13 13 12 11 11 11 13 15 15 31 54 58 55 58 56 50 48 51 53 55 57 45 30 30 36 36 40 49 53 51 48 48 50 52 52 53 55
10 15 19 20 21 22 22 23 20 15 12 11 11 10 11 17 18 12 14 21 22 20 20 19 19 18 16 14 14 14 14 15 14 15 16 16 15 16 15 15 16 17 17 17 16 15 14 13 13 13 14 13 13 13 11 12 12 12 15 16 25 40 41 43 53 50 44 50 52 53 57 51 37 29 29 30 33 41 49 55 54 51 49 51 53 55 54 53
10 15 20 21 22 23 23 24 21 15 13 13 11 11 13 16 15 10 13 20 21 20 20 19 18 18 16 15 14 13 13 14 14 14 15 15 16 16 15 15 16 17 17 17 17 16 15 15 15 15 15 14 13 14 13 13 13 11 13 14 18 26 24 27 40 37 36 52 61 60 55 43 36 38 37 36 40 44 48 52 52 49 49 50 52 54 55 55
10 14 19 23 24 24 24 24 20 14 14 14 11 11 14 13 11 12 15 18 19 20 20 18 17 17 16 15 14 13 13 13 13 13 14 14 15 15 15 15 16 16 16 17 17 16 16 16 16 16 16 15 14 14 14 14 14 12 13 14 15 18 16 18 28 33 38 48 58 61 50 36 35 38 38 38 40 43 45 46 48 49 49 49 49 50 51 55
10 14 19 23 24 23 23 21 17 14 16 15 12 10 12 11 11 15 19 20 20 19 18 18 17 16 16 15 14 14 14 13 13 13 13 14 14 14 14 14 15 15 15 16 16 16 16 16 16 16 16 15 14 15 15 15 15 13 13 15 15 15 16 19 29 39 41 37 40 51 48 39 35 33 34 35 36 43 45 45 48 49 47 46 46 46 48 52
11 16 20 25 26 23 22 19 15 16 18 15 12 11 10 10 10 15 21 23 22 19 16 16 17 16 15 15 15 14 14 13 13 13 12 13 13 13 13 13 14 14 14 15 15 15 16 16 16 16 16 15 15 16 17 17 17 17 17 17 19 21 21 23 32 42 40 33 33 40 44 44 40 36 34 34 37 44 46 47 50 48 45 45 44 45 47 49
11 16 21 26 29 26 24 21 18 20 21 16 12 12 11 10 9 12 18 22 22 20 15 14 17 17 14 14 15 15 14 13 13 12 12 12 12 12 12 12 13 13 13 14 15 15 16 16 17 16 16 16 14 16 19 19 18 19 21 22 23 26 27 27 32 35 34 35 38 39 41 41 38 38 36 37 44 48 47 50 50 47 46 46 45 44 45 46
11 15 20 26 31 30 26 25 24 24 21 16 13 12 11 11 11 10 12 16 19 18 13 12 16 18 16 16 17 16 15 14 13 13 12 12 12 12 12 12 12 12 14 14 15 15 15 16 18 17 16 16 14 16 19 20 20 20 22 23 23 25 27 28 30 30 29 37 41 38 39 37 33 35 36 40 47 48 47 50 49 48 47 46 45 42 41 43
11 13 20 28 33 34 30 26 24 23 20 16 14 13 12 11 11 10 9 10 12 13 11 10 14 18 17 17 17 17 16 15 15 14 13 13 12 12 12 12 12 12 14 15 14 15 15 15 17 18 16 18 17 17 18 19 20 20 21 22 23 24 26 29 32 31 30 38 43 38 35 34 32 33 35 41 47 46 45 47 47 47 46 45 45 42 40 42
11 13 20 29 36 39 36 29 22 20 18 16 15 13 13 12 11 11 10 9 9 10 9 9 11 15 17 17 17 17 17 16 16 15 15 13 12 12 12 12 12 13 14 15 14 15 15 14 16 19 19 20 21 18 18 20 20 22 23 23 23 24 26 29 34 37 36 39 44 42 35 31 29 29 33 39 42 43 45 46 45 46 45 44 45 43 41 43
12 13 18 26 36 42 41 37 30 22 17 16 16 15 14 13 12 11 10 9 9 8 8 8 9 12 17 18 18 18 17 17 17 16 14 14 13 12 13 12 13 13 14 15 15 15 15 14 15 19 21 22 22 20 19 21 21 22 24 24 25 25 25 27 30 35 39 40 44 46 39 30 25 24 29 36 41 44 46 46 46 46 46 45 44 43 42 44
13 14 14 19 31 40 44 45 42 35 25 20 21 23 20 18 17 13 11 11 10 10 10 8 8 13 19 21 20 19 18 17 16 15 14 14 13 12 13 13 13 14 15 15 15 14 15 15 15 20 23 22 21 20 20 20 21 24 25 25 27 27 26 27 26 29 37 40 44 47 39 29 24 22 26 35 42 46 46 46 46 45 45 44 44 43 42 43
15 14 13 14 21 33 43 48 48 45 39 33 31 31 29 27 24 18 14 14 14 14 13 10 10 16 21 22 21 19 18 17 16 15 15 14 14 12 13 14 13 15 15 15 14 14 14 14 16 20 24 24 24 24 22 21 22 24 25 25 28 28 26 28 28 30 35 36 39 41 33 25 23 23 26 34 39 42 43 44 43 42 42 43 44 44 42 42
17 17 18 17 18 25 38 46 48 48 46 44 42 40 37 36 34 27 19 19 20 19 17 14 15 19 22 22 21 19 18 18 16 16 15 14 14 14 13 13 14 15 15 15 14 14 14 14 15 18 22 23 24 24 21 19 21 23 25 27 29 28 27 29 32 33 32 33 38 37 29 24 23 25 30 34 36 39 42 42 40 38 40 43 44 44 43 42
19 19 20 19 18 22 31 39 45 48 47 47 47 47 43 41 42 38 29 26 26 21 19 19 19 21 23 23 21 19 18 18 17 16 15 15 15 15 14 14 14 15 15 15 14 14 14 15 14 15 17 18 18 18 17 17 20 24 27 29 30 29 26 27 32 34 32 32 35 32 26 24 25 29 33 34 35 38 40 39 37 37 40 43 44 43 42 41
23 21 21 20 20 23 27 33 39 44 47 47 48 50 48 43 43 43 38 36 34 27 23 25 24 23 25 24 22 20 18 18 18 16 15 15 14 15 14 14 15 15 15 14 14 15 15 16 16 15 16 16 16 16 18 19 23 26 27 26 26 25 22 21 26 30 32 33 33 29 25 24 26 31 35 35 36 38 39 40 40 41 43 44 45 44 43 42
29 24 22 22 23 24 28 33 37 41 45 47 49 50 49 46 43 43 43 42 40 35 29 29 30 27 26 25 23 20 19 18 18 17 16 15 15 15 15 15 15 16 15 14 15 16 16 16 17 16 16 17 17 18 21 23 26 29 27 23 21 20 19 19 20 22 26 29 31 29 25 24 29 35 36 36 37 39 40 42 42 43 42 42 41 39 39 40
34 28 25 24 23 23 25 30 36 43 49 51 52 51 51 49 45 44 46 45 43 40 35 34 35 31 27 26 23 21 20 18 18 17 16 15 15 15 15 15 15 15 15 15 16 16 17 17 17 17 17 18 18 19 22 23 23 25 24 21 20 18 18 18 18 18 21 25 28 30 28 26 31 35 35 36 40 41 41 43 43 43 42 40 38 35 34 34
37 32 28 26 24 23 22 24 27 36 47 53 55 55 54 53 49 46 47 47 46 44 40 38 39 35 30 27 25 22 20 19 18 18 17 16 16 16 16 16 15 15 15 16 17 17 17 18 18 18 18 18 18 21 24 23 20 20 20 20 19 19 18 18 17 17 19 21 24 29 30 28 30 33 34 36 41 43 44 45 46 45 42 40 39 37 34 33
38 36 31 28 27 26 24 24 24 26 34 43 51 56 58 58 54 50 49 49 48 47 44 42 41 38 33 30 27 25 23 20 20 19 18 17 16 16 17 16 16 16 16 16 18 18 18 18 19 19 18 18 18 21 23 22 21 21 21 20 19 19 19 19 18 17 17 17 20 26 28 28 31 34 34 36 40 44 47 48 47 45 43 41 40 38 35 34
39 38 34 30 29 28 26 25 25 24 24 29 38 49 57 62 60 54 52 52 50 48 47 45 44 42 38 35 32 29 26 23 22 21 20 18 17 17 17 17 17 17 17 17 17 18 18 18 18 19 19 17 17 20 21 22 23 23 21 20 20 20 21 22 22 21 19 18 19 23 26 28 32 35 35 36 40 43 46 47 44 41 40 39 37 35 34 32
Wind_Speed
6 6 7 8 8 8 8 8 7 6 5 5 5 4 3 3 3 4 4 3 3 3 3 3 4 5 5 5 5 9 14 18 18 16 17 17 15 13 12 12 9 9 8 4 2 2 3 2 2 2 4 6 8 8 8 7 5 6 7 9 10 9 9 10 9 7 5 4 3 3 6 7 6 6 6 4 4 6 6 6 6 5 5 6 8 8 7 7
6 6 7 8 9 9 9 9 8 6 6 5 4 4 3 3 3 4 5 5 5 4 3 3 3 4 5 5 5 6 9 15 18 18 18 18 16 14 14 13 11 11 9 6 4 2 2 1 2 1 2 4 6 7 8 8 7 5 6 9 10 8 7 9 9 7 6 5 4 3 5 7 6 5 4 4 6 8 8 6 5 5 5 7 10 10 8 7
6 6 7 8 9 10 10 9 8 7 6 6 5 4 3 3 2 2 4 5 6 5 4 3 3 4 5 6 5 5 6 11 16 20 20 19 19 17 15 14 12 12 10 8 6 3 2 1 2 1 2 3 5 6 7 8 9 7 6 8 10 8 8 10 9 7 6 6 6 5 5 7 6 6 4 7 10 11 11 9 6 6 7 8 10 10 9 8
6 6 7 8 9 10 10 9 8 7 7 7 6 5 4 3 2 2 2 3 5 5 5 4 3 3 4 5 5 5 6 8 13 19 21 20 20 19 16 15 14 13 11 9 7 5 3 1 1 2 2 3 3 4 5 6 7 7 7 5 7 9 9 9 8 7 5 6 7 6 6 6 6 6 5 9 13 13 13 12 10 7 7 6 7 9 8 7
7 6 6 7 9 10 10 9 8 7 7 7 7 6 5 5 3 2 1 2 3 4 5 4 4 4 4 5 5 5 6 5 8 15 20 22 21 20 18 16 15 14 12 11 8 6 3 1 3 2 1 1 1 2 2 3 4 6 6 4 4 7 9 9 8 7 5 6 7 7 7 7 6 6 6 10 12 12 11 11 11 9 7 5 4 6 7 7
7 6 6 7 8 10 10 8 7 7 7 7 7 6 5 5 4 3 2 1 1 2 3 4 4 4 4 4 5 6 6 4 6 11 14 20 22 21 20 18 17 15 14 12 10 7 4 2 4 1 1 1 1 1 2 2 3 4 5 4 2 4 8 9 8 8 7 6 8 9 9 8 6 5 8 9 7 8 9 9 9 8 7 6 4 4 6 7
7 7 7 7 8 9 10 9 7 7 7 7 6 6 5 4 4 3 2 1 1 2 2 3 4 4 3 3 4 5 5 5 7 8 9 15 20 22 22 20 19 17 15 14 10 8 4 3 4 1 2 3 3 1 1 2 2 3 3 3 2 1 7 9 8 8 8 8 9 9 9 9 7 6 7 6 5 7 8 8 8 7 7 6 6 5 6 7
8 7 7 8 8 9 9 9 8 7 7 7 7 6 5 4 3 3 2 1 2 3 3 3 4 4 4 3 3 4 5 7 8 7 7 10 15 21 23 22 20 19 17 15 12 9 5 3 4 3 3 4 1 2 3 3 3 1 1 2 2 0 4 7 9 9 8 9 9 10 10 10 8 6 6 5 5 7 8 8 8 7 6 5 6 6 6 6
9 8 7 8 8 8 9 9 8 7 7 7 6 5 5 5 4 3 2 2 3 4 4 5 6 6 4 2 3 3 5 7 8 8 8 8 10 17 22 22 21 20 19 16 12 9 6 5 5 3 3 3 3 6 4 3 2 1 1 2 1 1 3 6 8 9 9 10 10 11 12 11 8 7 6 5 6 7 8 9 8 6 5 4 5 6 7 6
8 8 8 8 8 8 9 9 8 7 7 6 6 5 5 5 5 5 4 3 3 4 5 8 8 5 3 1 2 3 5 7 8 8 10 9 8 12 19 21 20 21 19 16 14 11 8 8 6 3 1 2 7 7 4 3 1 1 1 1 2 2 4 7 8 10 10 11 12 13 13 11 9 7 6 4 5 6 7 9 8 6 6 5 6 8 8 7
7 8 8 8 8 8 8 9 8 7 6 5 5 4 4 5 6 6 5 5 5 6 7 9 6 4 3 2 1 1 4 6 7 8 9 10 8 10 16 18 19 20 19 17 15 12 10 9 5 2 3 6 7 6 4 2 0 2 3 3 3 4 5 7 10 11 12 12 13 15 13 12 10 9 6 3 3 5 6 8 8 6 7 7 8 9 8 7
8 7 8 8 8 8 8 9 8 6 6 5 4 3 3 5 6 6 7 7 7 7 9 8 6 5 5 4 3 1 3 5 6 7 8 9 8 10 15 18 19 20 19 18 15 13 11 8 4 3 5 8 6 4 3 1 2 3 5 6 6 7 7 7 11 12 13 14 14 15 13 12 12 10 8 5 4 5 5 7 7 6 7 8 9 9 8 8
9 8 8 8 8 8 8 8 8 6 5 5 3 2 3 3 5 6 6 6 7 8 9 9 7 6 4 4 3 2 3 4 5 7 7 9 9 11 15 17 19 21 20 18 16 14 12 8 4 4 7 7 5 3 2 2 4 4 6 7 9 11 9 5 10 14 14 14 15 15 11 12 14 11 9 6 4 6 6 6 6 5 7 9 10 10 8 8
10 9 8 8 8 8 8 8 7 6 5 4 3 2 2 2 2 3 4 4 6 8 8 8 6 6 4 3 3 3 3 2 4 6 7 9 11 13 15 16 17 19 20 19 17 15 12 9 5 4 7 8 5 3 1 3 5 6 7 9 12 12 10 5 7 14 15 14 15 15 12 12 13 12 10 7 5 6 7 6 5 5 7 10 12 10 9 8
11 10 9 8 8 8 8 7 7 6 5 4 4 3 2 2 2 1 2 2 3 5 6 5 4 4 2 2 3 3 2 1 4 6 8 10 13 14 14 15 17 19 20 19 18 16 13 10 7 6 7 7 5 2 2 5 6 7 7 9 13 13 11 6 5 13 15 14 14 15 12 10 12 12 10 8 7 8 8 6 5 6 8 11 11 9 8 7
11 11 9 8 9 8 7 7 7 6 5 4 4 3 3 3 3 3 2 0 1 3 4 3 2 2 1 0 2 3 2 4 6 7 9 12 14 15 15 16 17 18 20 20 19 17 13 11 9 8 8 7 5 1 3 5 6 8 9 10 12 12 11 7 5 12 14 14 14 14 9 8 10 12 11 9 9 9 9 7 5 8 10 11 10 8 7 7
11 11 9 8 8 8 8 7 6 6 6 5 4 3 4 4 4 5 4 2 3 3 4 4 3 2 1 1 1 2 1 4 8 9 11 13 14 15 15 15 16 18 20 21 20 18 14 12 11 10 9 8 6 2 1 4 7 10 11 11 12 12 10 6 4 9 12 13 15 12 5 6 9 11 11 10 10 10 10 8 7 9 11 10 9 8 8 8
10 10 10 8 8 8 8 7 6 6 6 5 4 4 4 4 5 6 5 5 5 5 5 4 4 2 2 2 1 2 1 4 8 10 11 12 13 14 14 14 15 17 19 21 21 19 16 14 12 11 12 11 8 5 2 2 6 10 11 11 11 11 10 5 2 6 10 12 14 12 7 7 8 8 10 10 9 9 10 9 8 9 9 8 8 8 8 8
10 10 10 9 8 8 8 7 7 6 6 5 3 4 4 4 5 5 6 6 5 6 6 6 5 6 5 2 0 1 1 4 7 8 8 10 12 12 13 13 14 15 17 19 21 20 18 16 14 14 16 14 10 6 4 4 7 10 11 11 11 10 9 5 1 3 8 11 12 13 11 9 7 7 9 10 9 9 9 10 9 9 9 9 8 7 7 7
11 10 10 9 8 8 8 8 8 7 6 4 3 3 4 4 5 6 7 6 5 6 7 6 6 7 7 3 1 1 3 5 6 7 7 9 10 11 11 12 13 13 15 18 20 21 20 18 17 17 17 13 9 7 6 8 9 10 12 12 11 11 8 4 2 2 6 9 10 11 12 11 9 8 8 10 10 9 9 10 10 9 9 9 7 6 6 5
12 12 11 9 8 8 8 8 8 8 6 4 3 2 3 4 5 6 6 6 5 7 8 7 8 8 6 4 2 3 4 5 6 8 9 9 9 10 11 12 12 13 14 16 18 20 21 22 20 18 15 11 9 9 9 9 10 11 13 13 13 11 6 3 2 3 5 8 9 9 11 12 11 10 10 11 12 11 10 10 10 9 9 8 7 6 5 4
13 13 12 11 9 8 9 9 8 9 6 3 2 2 2 4 5 5 5 4 4 8 10 10 10 9 7 6 5 5 4 4 5 7 9 9 9 10 11 12 12 12 12 13 17 19 22 25 23 17 15 13 12 11 10 11 11 13 14 14 13 10 4 2 4 4 5 8 9 10 11 12 12 13 13 13 13 13 12 12 11 11 11 10 7 6 5 4
14 13 13 12 10 8 9 9 8 9 7 4 2 2 2 4 5 5 4 3 3 8 11 11 12 10 8 8 7 6 5 4 4 6 8 9 9 10 11 12 12 10 10 11 14 18 20 21 22 18 15 15 14 13 11 11 13 13 14 13 13 10 5 5 6 5 5 7 7 9 10 10 12 15 16 15 15 15 15 15 14 13 13 12 10 9 8 6
14 14 13 13 12 10 9 10 9 9 8 5 3 2 3 5 4 4 3 3 5 8 12 12 11 11 8 8 8 7 6 4 5 7 8 9 10 11 11 11 11 10 7 8 10 15 15 12 15 17 15 15 15 13 11 11 13 13 12 11 9 7 4 5 6 6 6 6 5 5 8 8 10 13 14 14 15 16 16 16 15 14 13 13 12 12 11 9
15 13 13 13 13 12 10 10 10 9 8 6 4 3 4 4 4 3 3 3 6 9 12 12 11 11 9 9 8 7 7 5 6 8 7 8 10 9 9 9 10 8 5 6 6 9 13 9 9 15 16 15 14 13 11 10 11 9 7 6 4 4 3 4 6 6 5 6 6 5 4 3 4 7 10 13 14 16 17 17 17 16 15 14 13 13 12 11
15 13 13 12 13 13 12 11 10 9 9 7 5 4 4 4 3 3 3 3 6 10 12 12 11 10 9 10 8 7 9 7 8 9 7 8 10 8 7 7 7 6 4 5 4 5 10 11 9 11 14 14 14 12 10 9 8 5 4 3 4 5 5 3 5 6 4 4 5 7 4 3 5 5 7 10 13 15 16 17 18 17 16 15 14 14 14 13
16 14 12 12 12 13 14 13 11 10 10 8 6 6 5 4 2 2 2 4 5 12 13 12 11 9 9 9 8 8 7 7 11 10 7 9 10 8 7 7 7 6 4 3 4 6 10 12 11 11 12 14 14 12 9 8 6 3 2 4 6 7 6 3 3 6 5 3 3 5 6 5 6 6 7 8 10 12 12 13 15 16 16 15 14 13 14 14
16 14 12 11 12 12 14 14 12 11 11 9 8 7 6 5 3 2 1 3 4 13 13 13 10 8 9 10 9 8 6 7 11 11 10 11 10 8 7 7 6 5 5 3 4 7 9 11 11 10 11 13 13 10 7 6 5 5 4 4 6 6 4 2 3 6 7 4 2 3 4 4 5 7 9 7 6 6 6 7 8 11 13 14 13 13 14 15
16 14 12 10 11 12 13 15 14 12 12 10 9 9 7 6 4 2 1 1 7 12 12 13 11 8 10 11 10 11 10 8 10 11 13 13 10 9 9 8 6 6 5 4 4 7 7 9 11 9 9 10 9 8 6 6 6 7 7 7 6 4 6 5 5 7 7 5 1 0 2 3 5 7 7 4 1 2 0 2 3 5 8 11 11 12 14 15
17 15 12 9 10 11 12 15 15 13 12 12 10 10 9 7 5 2 1 2 9 10 10 12 11 9 11 13 12 12 12 9 9 11 13 14 11 9 10 9 7 6 5 4 6 7 7 8 9 8 7 7 7 7 6 7 7 6 7 8 5 4 6 5 5 6 4 3 2 1 2 2 3 5 5 2 2 1 2 3 3 4 5 7 8 10 12 13
17 16 13 9 8 10 12 15 15 13 13 13 11 12 11 8 6 3 1 5 9 9 9 11 11 10 10 13 13 11 11 10 11 11 11 14 13 11 11 10 8 6 5 5 5 8 9 9 9 8 6 6 6 6 7 7 6 4 6 8 5 5 5 3 3 4 3 2 3 2 1 4 5 5 5 4 3 4 5 5 5 4 4 5 6 7 9 11
17 15 13 10 8 9 11 14 14 13 13 13 13 14 13 9 8 7 4 6 7 7 9 9 11 12 10 11 12 11 11 11 11 11 11 14 14 13 13 11 8 6 5 5 5 7 10 10 9 9 8 7 6 6 9 9 7 5 6 7 5 4 3 2 1 2 3 3 4 2 1 4 8 8 8 10 10 8 6 4 4 4 4 6 6 7 8 9
17 14 12 11 9 9 10 12 13 14 14 14 14 16 15 8 7 11 9 6 5 6 9 9 10 13 12 12 11 11 12 11 11 12 11 13 13 13 14 12 10 8 5 5 5 4 7 9 10 10 10 10 8 8 10 10 9 9 9 8 5 3 2 2 1 1 3 5 7 6 3 5 9 9 9 11 10 7 5 4 4 5 5 7 7 7 7 8
18 14 12 11 10 8 8 10 12 13 13 14 16 17 17 11 4 8 11 8 6 6 6 8 10 12 14 13 11 11 11 10 11 12 12 13 13 14 16 14 12 10 7 6 5 3 5 6 8 9 10 11 11 10 9 7 9 11 11 8 7 4 3 2 3 2 1 1 4 6 4 3 5 5 4 6 6 5 5 5 5 6 6 7 8 7 7 7
18 14 12 10 9 7 6 8 10 12 13 15 17 18 20 15 5 3 9 11 8 6 5 7 9 11 12 13 12 11 10 9 10 12 12 14 14 15 16 15 12 11 10 8 5 4 4 4 5 8 9 10 11 11 9 7 8 11 11 9 8 6 5 3 3 3 2 2 3 5 5 6 6 6 6 6 7 7 6 7 7 6 7 8 9 9 8 7
18 15 12 10 8 6 5 6 8 10 12 14 17 20 21 16 7 3 7 10 9 8 6 6 8 10 11 12 13 12 11 10 10 11 13 14 16 16 15 14 12 12 10 10 7 4 5 5 5 7 9 9 9 8 8 7 7 9 11 10 9 8 8 5 3 3 3 2 3 4 6 8 9 9 10 11 12 10 8 8 7 7 7 8 9 10 9 9
17 14 11 9 7 6 4 5 6 9 12 13 16 20 19 16 11 6 6 8 9 8 5 3 6 8 9 10 10 10 11 11 11 11 13 13 14 16 17 14 12 12 11 11 10 8 6 5 5 8 12 11 8 6 6 7 6 7 9 9 8 7 7 6 2 3 2 2 2 4 8 10 9 8 9 11 12 11 9 7 8 8 8 8 8 9 9 8
15 12 10 8 7 6 4 3 6 9 12 13 15 17 16 16 15 10 9 9 9 7 4 3 5 7 7 9 9 8 9 10 11 12 14 13 11 13 17 16 14 13 11 10 12 11 8 5 4 8 13 12 9 6 7 8 7 5 5 6 6 3 4 6 3 1 1 2 1 4 8 11 11 11 11 11 9 7 6 7 7 8 8 7 7 8 9 8
13 11 9 8 6 5 4 3 6 9 11 13 14 15 15 15 15 14 14 12 10 9 7 4 5 7 8 10 10 8 8 8 8 10 12 13 12 13 15 16 15 14 12 12 14 13 10 6 3 7 11 11 11 10 9 9 9 6 5 5 5 3 3 5 4 2 1 1 1 2 5 6 7 8 10 11 9 7 7 7 7 7 7 7 7 7 9 9
12 10 8 6 5 4 4 3 5 8 10 12 13 14 14 14 14 14 16 16 14 13 10 7 7 7 8 9 9 8 8 7 6 7 9 10 13 14 14 14 15 15 13 14 16 12 10 8 4 7 11 10 10 13 12 10 10 8 8 8 8 6 4 4 4 4 2 1 1 2 3 4 5 6 7 8 8 8 8 8 8 7 7 8 7 8 9 9
11 9 7 5 4 4 3 3 5 7 9 11 12 13 13 14 14 13 15 17 17 15 14 12 10 8 9 9 8 6 8 8 6 5 8 10 13 13 12 12 14 15 14 17 18 13 10 10 7 7 10 10 9 12 13 10 9 8 8 9 9 8 7 4 3 4 4 3 3 2 3 5 6 5 6 7 8 8 8 8 8 8 8 8 8 8 8 8
11 8 7 6 6 6 5 4 5 7 9 11 11 12 12 13 13 13 14 16 16 16 15 14 12 10 9 9 9 8 8 8 7 6 7 10 13 13 10 10 12 15 16 17 17 14 11 11 10 8 10 11 9 10 12 11 9 9 8 8 8 10 10 6 3 4 6 5 4 3 3 4 5 5 5 6 8 8 8 8 8 8 7 7 7 7 6 6
11 7 7 7 7 8 8 7 7 8 10 10 10 11 11 11 11 12 13 14 15 15 15 14 12 12 10 8 9 10 9 8 7 7 6 7 12 13 10 9 12 14 16 15 15 14 12 11 12 10 9 10 8 8 11 11 11 11 11 9 10 11 10 8 6 4 5 6 5 3 3 3 5 7 6 5 6 7 7 7 8 7 6 6 6 6 6 5
11 8 7 8 9 10 10 10 9 10 10 10 9 10 10 9 10 10 11 12 13 14 14 13 13 13 11 10 10 10 9 8 7 8 7 6 10 13 12 11 12 14 16 14 12 12 11 11 13 11 6 5 6 5 7 10 12 14 13 12 12 11 9 8 8 5 5 7 6 4 3 3 4 7 6 5 5 5 6 7 8 7 6 6 6 5 5 6
11 9 6 7 10 11 12 12 11 11 11 10 10 10 10 8 8 9 9 10 12 13 14 13 13 15 14 12 12 11 11 10 8 8 9 8 8 12 14 13 14 15 16 13 10 11 10 10 13 13 7 5 6 5 6 10 13 16 16 14 13 11 9 7 6 6 6 7 8 7 4 3 4 5 5 4 4 4 5 6 7 7 6 6 6 6 5 6
10 9 7 7 9 12 14 14 13 13 12 11 11 11 10 9 8 7 7 9 11 13 13 13 14 16 15 14 14 13 12 11 10 9 9 9 8 10 14 16 16 17 17 14 11 11 10 9 12 14 11 9 7 8 9 11 14 17 16 14 13 11 10 8 7 8 7 7 10 10 7 5 5 4 2 2 2 4 5 7 8 7 6 6 6 6 6 7
10 9 9 8 8 10 13 15 15 16 16 14 12 11 10 8 8 7 7 8 10 11 12 13 13 14 15 15 16 15 13 12 12 11 11 11 9 8 12 16 18 18 18 16 13 13 12 10 11 12 12 10 10 11 11 10 13 16 15 13 12 11 10 9 9 10 9 8 8 8 7 6 4 2 3 2 2 4 5 6 6 6 6 6 6 6 7 7
11 9 9 10 9 10 11 13 14 16 17 17 16 14 12 10 9 9 8 8 8 10 12 11 11 13 14 14 16 17 15 14 13 13 13 13 12 10 11 16 19 19 19 17 15 14 13 12 11 11 12 12 11 11 10 9 11 15 14 12 12 10 8 8 8 10 11 12 10 7 7 6 3 3 5 4 3 4 5 5 6 7 8 9 8 9 9 10
14 12 10 10 11 12 13 14 15 15 16 16 16 16 15 12 10 9 9 8 7 9 11 11 9 11 13 13 15 15 15 15 14 13 14 15 15 13 13 16 20 21 19 17 16 15 14 12 11 12 12 12 12 11 11 11 12 13 14 12 11 10 9 9 9 10 11 13 14 13 12 9 5 5 8 7 6 6 6 7 9 10 11 12 12 12 12 12
15 14 12 11 12 13 14 15 16 17 17 17 16 16 15 14 12 11 10 10 7 7 10 11 9 10 11 13 14 15 14 14 14 14 15 16 15 14 16 18 21 22 21 19 17 17 15 12 12 13 12 12 13 14 14 13 12 11 11 11 11 11 11 12 12 13 14 14 16 17 17 15 11 9 10 10 10 10 9 10 11 12 13 14 14 14 14 14
17 16 14 13 13 13 14 15 16 18 19 20 19 18 16 15 13 12 11 11 9 7 9 10 9 9 9 10 12 13 14 15 14 14 15 16 16 16 18 20 21 22 23 22 19 18 17 14 13 14 13 13 15 16 16 13 11 11 11 12 12 12 13 14 14 15 16 16 16 17 19 19 16 12 11 11 11 11 11 12 13 14 15 16 16 16 16 16
18 17 16 15 14 14 14 15 16 17 19 20 21 20 19 17 15 13 12 12 11 9 8 8 9 9 9 9 9 10 13 15 16 16 15 16 17 17 18 21 22 22 22 22 21 19 18 16 15 15 14 13 15 16 15 11 8 10 13 14 13 13 14 14 15 16 18 18 18 17 17 17 15 13 12 11 10 11 12 12 14 16 17 17 17 17 17 16
Wind_Direction
69 68 59 47 36 27 19 14 8 359 352 347 342 334 320 292 266 254 245 240 235 234 231 223 221 224 229 229 225 222 220 217 213 210 210 212 212 211 211 209 202 182 175 191 198 150 139 98 41 46 49 45 43 51 57 64 95 127 149 161 164 166 173 177 177 177 185 194 197 187 169 174 175 155 142 126 107 105 109 116 123 134 158 153 144 155 163 148
61 60 51 40 31 23 18 14 9 6 9 10 6 1 349 328 283 258 245 238 232 232 231 227 222 222 222 223 224 219 217 214 211 209 209 210 209 210 211 208 202 189 182 192 199 179 177 251 354 54 68 49 41 43 50 58 75 105 141 160 162 159 166 172 179 186 199 211 223 222 184 184 183 165 141 91 87 93 90 88 111 130 142 150 145 148 159 158
52 49 42 34 28 22 18 15 13 13 20 26 25 22 17 11 338 279 252 239 233 229 226 222 220 221 221 219 217 211 208 208 207 207 208 209 209 211 211 208 201 193 192 197 195 193 203 279 321 137 106 64 45 40 52 61 68 79 110 154 162 157 167 174 176 184 199 210 222 231 200 191 176 156 135 94 92 92 86 80 92 120 130 141 144 147 161 166
43 42 36 29 25 22 19 18 17 15 17 23 27 30 32 29 15 342 281 249 235 228 223 217 215 223 221 213 210 200 193 199 204 206 207 208 209 211 211 207 200 194 196 199 194 196 207 286 253 181 113 77 58 40 50 66 71 75 87 128 160 161 170 178 175 173 188 198 204 215 209 199 172 153 135 104 100 94 88 88 92 109 124 131 139 148 161 159
34 35 31 24 23 23 21 21 19 15 17 22 27 31 35 34 27 15 338 271 241 227 217 213 215 218 214 205 197 186 181 190 205 207 207 207 208 210 211 207 201 197 197 200 199 204 214 257 219 191 108 65 63 17 26 77 90 84 83 89 154 172 175 178 178 172 170 184 192 198 206 204 181 163 137 110 105 102 96 94 93 101 115 120 133 148 156 153
28 27 25 20 21 22 21 21 20 17 18 22 26 29 33 34 29 22 11 331 239 211 203 207 211 209 204 196 187 180 181 191 204 206 208 209 208 209 210 208 204 200 199 201 203 211 224 219 208 203 338 314 316 312 37 86 116 103 92 78 99 182 185 185 189 184 170 175 192 197 204 205 195 180 149 127 118 119 113 104 94 93 106 124 139 145 155 159
25 21 19 17 18 21 20 20 20 19 19 19 21 26 29 30 29 28 25 36 128 146 170 192 195 187 179 182 190 194 200 203 201 204 208 210 210 209 208 209 206 202 201 204 203 213 228 200 202 252 307 304 307 264 85 86 117 119 97 80 68 170 197 200 204 195 178 178 193 198 202 204 202 194 164 153 146 131 123 112 102 92 95 121 144 157 167 164
22 19 16 14 15 18 20 20 20 21 18 15 16 23 28 29 30 31 35 70 116 126 145 169 163 154 149 152 187 216 233 222 211 210 209 206 210 210 207 208 207 202 201 204 202 209 219 195 209 249 302 311 319 140 128 95 79 110 83 55 61 142 215 218 217 207 191 184 189 192 196 204 209 201 177 165 154 143 133 118 108 97 95 122 150 163 170 158
19 15 12 10 11 14 17 20 22 23 19 13 15 23 30 36 41 42 53 83 118 132 140 147 140 134 132 144 190 229 255 237 224 222 220 209 207 208 206 207 206 202 201 202 202 206 204 197 214 252 306 312 132 133 139 121 82 84 93 28 12 268 242 235 226 216 201 190 187 187 193 205 215 205 182 167 151 149 145 125 111 104 105 125 150 157 161 154
15 14 9 6 9 9 12 17 22 25 21 14 15 25 38 48 55 56 66 85 113 129 133 134 127 112 99 112 217 247 263 248 237 231 229 220 210 204 202 205 204 200 199 198 200 202 199 199 213 261 292 140 135 139 152 163 117 54 79 13 345 287 252 240 231 221 208 196 191 191 197 208 218 212 191 175 157 152 148 128 113 116 120 129 148 154 159 155
7 9 7 3 5 6 7 12 20 25 22 18 17 30 49 58 64 68 77 90 106 122 132 137 123 94 78 61 75 256 260 255 248 235 229 224 216 200 196 199 200 197 194 194 196 197 198 197 203 238 170 146 142 149 152 157 62 50 48 10 348 319 281 249 232 223 210 200 195 196 203 211 219 218 203 196 176 162 149 125 107 118 131 137 153 157 158 151
360 359 0 360 0 2 2 7 16 20 19 19 16 29 53 65 74 79 86 96 107 118 130 137 127 108 87 60 57 356 275 258 248 231 220 222 216 197 192 193 193 191 190 190 191 193 195 190 188 201 173 158 154 161 165 93 19 37 23 7 356 344 319 257 229 222 209 203 201 199 205 215 220 219 209 207 200 190 167 131 105 117 138 145 156 158 156 147
0 354 351 352 355 357 357 4 10 11 13 14 10 18 43 62 74 81 92 104 114 123 128 131 124 110 84 52 46 360 298 263 237 215 209 213 202 188 189 192 191 187 186 187 189 191 192 183 173 178 179 176 176 192 191 18 8 9 9 3 357 351 339 284 226 216 207 205 206 201 207 219 220 220 213 212 208 207 191 146 114 116 143 150 155 158 157 149
1 356 348 342 346 351 352 359 1 1 5 4 4 1 10 36 58 72 82 102 124 132 130 128 119 101 83 50 36 2 313 272 208 193 195 198 187 180 184 188 189 185 184 186 187 190 191 184 174 174 187 191 196 215 250 357 357 6 6 359 0 358 346 328 217 208 203 203 206 204 212 223 222 222 216 216 214 210 205 168 125 118 144 151 151 156 161 154
0 357 351 338 336 342 345 351 352 351 353 355 358 344 335 342 343 22 48 73 131 147 142 134 123 108 91 22 16 1 350 108 154 172 181 183 178 177 181 183 185 183 184 187 188 190 191 188 191 197 198 198 206 238 346 344 349 13 11 2 7 9 358 357 183 193 196 197 204 203 212 226 227 228 222 222 218 206 207 187 128 126 147 150 151 158 161 153
356 355 352 341 331 332 336 342 342 340 341 348 350 331 315 316 317 324 324 304 181 179 174 162 139 119 111 40 21 8 21 105 128 157 171 175 175 177 181 183 185 184 186 189 189 190 190 191 202 212 211 205 212 252 18 3 20 35 26 16 15 17 10 13 143 176 182 188 199 200 213 234 231 231 226 223 216 206 208 192 135 134 146 147 152 156 151 137
347 348 350 343 329 325 327 330 332 330 332 341 342 320 307 304 311 317 306 262 226 207 197 186 169 140 141 173 99 3 345 128 130 148 164 172 175 178 183 184 185 186 189 191 192 191 188 194 207 218 224 221 227 229 62 43 43 30 18 18 15 18 17 16 124 158 168 179 191 191 204 221 218 225 224 221 212 207 209 189 144 142 150 150 150 141 132 127
336 337 342 342 329 320 320 320 321 322 325 335 333 315 313 309 308 309 301 273 237 218 213 200 181 178 197 188 131 3 319 155 148 151 160 171 175 178 183 186 187 190 192 194 196 193 190 199 209 218 227 227 230 220 166 47 14 1 358 4 4 9 17 17 119 153 163 174 183 180 176 192 208 218 215 219 217 210 210 193 162 157 162 161 154 136 124 120
326 327 329 334 329 317 315 314 311 314 320 330 328 315 313 305 301 297 291 275 237 217 221 227 222 212 207 201 274 307 214 170 168 159 156 168 176 181 183 187 190 193 195 196 198 196 194 204 210 215 224 226 231 228 223 288 322 336 340 345 350 358 8 11 22 178 176 179 187 191 197 211 230 228 212 221 227 220 214 204 188 179 177 173 164 147 131 118
315 316 318 322 323 314 311 308 305 308 316 324 327 316 309 303 299 292 284 269 235 212 209 211 202 188 191 206 276 174 141 150 170 173 168 170 178 184 185 187 190 193 197 198 200 199 198 206 211 213 222 228 239 250 253 273 300 319 323 329 335 341 349 352 325 235 197 198 205 209 218 229 241 241 230 229 232 231 228 223 214 203 193 184 176 165 144 130
307 305 306 309 312 308 305 303 300 302 310 321 323 318 317 307 299 292 283 271 239 206 191 178 164 162 174 195 184 148 137 144 164 177 182 181 182 184 185 188 188 190 195 196 201 201 201 208 210 214 226 233 243 254 259 271 289 303 311 319 323 328 339 334 289 252 216 219 226 226 231 237 246 254 248 239 236 237 240 243 240 232 223 210 193 184 172 166
304 298 296 297 298 297 296 296 293 294 302 310 309 325 311 289 285 286 283 274 233 197 185 167 158 158 156 154 148 149 155 149 158 176 183 182 182 182 182 185 184 187 193 194 199 201 205 212 212 217 231 235 242 255 263 272 283 295 306 311 312 315 316 257 249 244 225 226 232 234 239 245 251 258 259 255 248 242 242 245 247 245 241 237 225 211 205 204
303 295 290 287 286 285 285 287 287 286 292 295 293 302 284 277 271 270 274 260 215 186 178 164 154 153 147 142 136 136 142 132 140 161 166 167 171 173 173 177 176 176 185 192 198 201 207 217 219 221 231 236 243 254 261 273 284 293 303 304 303 308 290 233 230 231 224 229 233 234 245 248 243 249 257 260 258 252 246 245 245 246 244 243 243 235 228 227
305 296 288 282 278 275 272 277 279 278 282 282 274 269 267 279 270 254 254 222 193 178 175 170 160 160 161 155 147 142 141 124 126 138 140 149 157 159 159 163 163 155 161 178 193 205 208 216 224 223 229 236 242 250 257 272 284 292 301 302 304 313 291 234 223 224 229 238 243 246 260 261 242 247 256 259 262 260 257 256 253 251 250 246 244 239 231 226
306 300 291 280 273 268 263 266 269 269 272 267 256 246 253 279 273 244 245 213 190 181 179 179 172 173 174 163 154 152 152 141 140 141 133 143 150 150 152 154 154 147 144 168 190 211 207 211 223 221 225 231 237 247 255 266 278 295 314 311 310 308 274 227 210 214 227 235 244 252 268 293 265 260 262 260 262 262 262 265 264 261 258 251 247 245 239 232
308 305 297 284 271 264 258 256 259 262 261 256 242 226 234 268 273 240 266 264 202 187 182 180 180 180 176 171 167 159 161 166 164 158 150 157 161 154 155 157 158 160 153 172 191 190 191 200 203 206 218 226 231 243 249 251 259 293 333 312 291 286 275 246 206 206 217 239 254 245 239 318 323 305 283 267 264 264 263 267 269 268 264 256 251 251 248 244
316 310 302 291 275 262 256 252 251 252 252 248 231 217 225 244 251 225 281 310 209 188 183 180 182 182 178 181 181 175 182 185 175 173 172 172 173 165 164 166 167 177 172 170 178 154 165 183 185 192 212 223 232 238 234 229 236 269 320 295 287 280 274 267 212 211 233 279 296 251 238 278 306 320 323 293 271 269 268 270 273 273 271 266 259 252 248 246
323 316 307 297 282 263 253 250 247 242 243 241 222 212 217 223 225 198 275 327 176 176 183 185 185 187 187 185 182 179 181 175 175 183 185 181 181 178 176 175 174 191 195 189 172 145 150 172 183 194 209 220 228 223 208 210 244 273 256 264 288 267 226 213 206 217 240 265 321 278 242 258 286 307 324 314 276 270 281 282 281 278 276 273 265 256 252 250
323 320 316 302 288 271 252 245 242 236 236 233 215 204 206 212 214 190 268 278 167 171 182 189 191 191 189 186 177 169 162 166 179 184 186 187 185 186 188 187 192 202 210 209 171 151 153 174 186 199 208 213 213 206 202 216 252 270 246 246 270 228 178 176 193 207 231 249 281 306 202 246 288 300 313 319 235 187 197 320 311 292 281 276 268 260 254 251
321 323 326 314 292 276 254 243 238 231 230 227 211 198 199 207 203 185 282 201 172 175 182 187 192 192 189 189 183 171 165 170 176 175 186 192 188 192 193 192 202 211 224 217 177 172 184 190 193 200 203 205 207 209 211 221 238 249 240 235 228 178 161 167 187 195 222 247 227 200 185 224 281 299 295 277 178 189 255 287 306 313 300 291 280 268 256 248
325 328 330 321 290 273 255 243 236 228 225 221 207 196 197 200 193 189 237 186 173 176 184 188 196 197 192 192 193 187 179 177 175 175 191 197 197 202 198 198 207 214 228 224 196 195 202 204 207 210 208 203 205 201 197 212 221 215 228 222 182 127 125 136 174 195 214 209 183 200 198 209 241 280 285 261 258 287 284 275 280 296 305 299 294 282 263 248
332 333 328 316 292 271 254 244 235 225 220 213 201 196 194 193 202 212 200 170 173 182 189 195 204 207 203 198 203 205 199 196 190 186 192 200 208 209 202 204 208 211 223 216 209 209 211 217 219 218 220 212 205 197 195 205 207 194 210 207 167 108 122 158 167 219 243 245 231 236 148 226 252 271 274 269 277 287 282 270 277 289 295 291 289 284 270 251
339 338 327 316 303 281 259 248 234 223 217 207 198 195 191 188 217 221 204 177 177 184 190 196 203 211 211 205 207 208 210 213 206 198 197 204 216 214 207 210 211 212 209 200 212 210 205 220 228 228 228 223 222 211 200 207 216 211 210 209 187 142 166 193 167 253 265 250 243 244 243 262 268 273 270 269 276 277 265 262 270 282 290 289 289 286 277 264
342 342 331 322 312 294 265 247 232 222 213 204 198 191 191 197 223 220 208 202 187 172 192 207 205 212 216 213 210 207 212 218 214 210 208 208 216 214 211 213 213 212 210 216 239 228 195 209 229 231 223 220 225 221 215 224 231 222 213 217 217 194 213 230 199 230 265 162 207 219 225 253 262 269 273 272 271 260 255 269 276 283 287 286 291 295 290 278
344 344 339 331 317 303 271 245 230 219 210 203 197 193 197 203 213 221 209 209 203 193 221 231 216 218 221 218 216 214 216 222 221 221 220 218 216 213 212 213 212 210 214 225 237 237 232 241 244 228 212 211 215 217 226 231 228 222 210 214 229 226 236 233 186 191 175 141 183 201 225 242 243 255 265 276 280 265 258 271 278 282 283 281 287 292 292 285
343 345 343 337 325 314 284 249 231 216 207 200 198 201 205 206 212 239 213 208 212 214 232 244 226 223 225 223 223 222 221 223 224 226 229 228 226 223 221 219 216 215 216 222 227 230 237 252 250 215 194 191 194 199 213 212 208 210 206 216 232 228 221 209 153 146 171 221 229 218 248 257 257 261 262 268 273 264 259 267 273 280 281 275 278 282 284 282
339 342 341 341 337 328 306 256 227 211 202 198 202 209 212 210 215 236 225 212 213 213 219 229 216 215 217 215 213 215 221 223 226 229 230 232 234 230 225 220 215 216 219 224 232 235 229 245 250 206 187 183 182 179 183 188 192 192 198 211 217 213 209 198 147 120 176 255 249 232 257 263 261 261 263 266 264 257 259 266 269 276 281 278 277 279 281 280
336 338 338 342 344 336 319 261 220 206 198 198 206 213 217 217 222 234 234 223 217 219 231 235 209 200 188 180 178 190 210 215 219 228 230 231 234 225 222 224 219 216 221 223 224 228 228 239 243 204 194 196 203 200 179 182 194 196 200 202 196 199 193 183 170 145 220 271 246 230 254 260 257 259 271 270 257 254 268 272 273 276 282 284 283 285 286 284
334 333 331 333 340 334 320 263 217 205 201 202 207 214 220 222 226 234 237 236 233 237 250 252 216 195 176 166 164 178 199 201 208 226 229 226 225 220 220 228 225 217 219 216 211 216 224 231 225 198 198 203 212 211 199 196 201 206 219 212 206 223 193 180 185 179 212 263 273 243 249 260 269 276 283 274 260 267 279 277 277 277 282 289 290 289 288 283
331 325 322 320 322 324 318 273 220 207 208 210 210 216 224 227 228 233 239 241 242 246 254 249 225 208 196 184 172 177 195 197 202 225 231 222 222 225 224 229 226 214 210 207 201 202 217 228 223 197 196 201 209 212 214 216 215 217 226 221 218 220 200 185 192 191 205 230 212 267 269 287 303 301 291 275 264 271 278 277 274 276 285 291 293 293 288 283
333 321 308 299 290 289 296 269 228 212 211 214 215 218 228 233 230 231 237 241 243 248 251 248 238 225 214 206 200 196 200 202 206 232 244 232 225 228 227 226 223 211 203 201 197 198 212 221 219 204 197 197 204 211 215 218 217 218 228 228 226 220 204 194 209 206 207 201 187 240 290 313 325 313 288 275 269 268 270 273 274 278 286 288 294 298 294 290
334 319 295 281 264 253 258 257 243 230 222 222 223 225 232 238 236 233 234 238 243 247 248 247 243 233 222 217 215 207 203 207 212 227 244 235 226 226 224 221 216 209 205 204 203 203 210 218 219 206 196 197 200 206 210 214 213 210 220 224 218 214 207 207 231 213 202 207 207 221 266 307 336 335 308 279 272 270 269 272 274 278 286 290 296 304 304 298
333 319 291 274 255 243 245 250 250 247 240 236 235 236 237 241 243 239 235 237 242 246 245 243 237 229 224 220 210 203 205 211 211 222 240 233 220 218 220 220 213 207 206 209 211 207 205 213 210 193 189 201 207 209 212 219 221 218 223 221 208 211 213 215 228 219 201 207 201 196 238 282 321 327 319 289 270 269 273 277 279 285 295 302 306 310 313 309
330 319 293 270 256 245 244 247 249 249 249 245 242 245 247 249 251 246 237 236 240 242 241 237 229 223 221 220 209 196 198 208 212 222 234 230 215 210 210 216 215 209 205 208 213 209 201 202 194 177 168 198 208 213 216 219 222 223 228 223 210 211 217 218 225 224 217 215 203 202 245 272 313 323 317 293 273 272 278 281 284 294 303 308 313 315 315 317
327 319 300 269 256 248 243 243 246 248 249 247 243 245 250 252 257 254 239 233 237 236 234 229 222 220 221 220 213 196 190 200 210 219 225 225 217 209 207 212 214 211 208 209 215 211 205 201 193 185 184 198 203 218 229 227 225 225 227 224 214 211 214 214 215 216 223 220 209 214 244 277 298 313 316 302 282 272 272 278 286 296 303 305 308 309 306 306
329 317 303 277 258 251 246 243 243 247 249 249 247 249 248 241 242 249 239 234 238 236 233 228 221 221 224 222 216 205 195 200 209 213 214 216 214 207 206 208 210 210 210 210 209 208 210 212 205 203 211 222 230 242 249 247 235 225 222 219 213 212 216 218 217 223 229 225 223 232 249 274 292 298 294 285 264 257 266 279 288 293 298 301 302 303 301 295
327 314 300 287 268 253 250 248 246 247 250 251 251 253 250 234 220 222 226 232 239 235 231 233 228 225 228 224 218 215 208 206 210 209 207 211 213 207 203 204 207 208 206 204 204 208 214 218 214 216 226 238 247 249 252 249 233 221 213 210 208 209 217 225 230 237 240 234 238 247 249 258 286 280 247 248 247 259 274 282 287 291 294 297 297 294 294 291
321 312 298 286 271 256 254 255 252 251 253 254 255 254 254 244 224 217 217 221 235 233 225 227 227 225 229 226 219 220 218 213 212 208 208 213 214 208 203 202 204 205 201 201 206 211 217 220 219 223 231 237 243 247 243 232 218 211 208 208 210 211 220 234 245 253 253 245 248 256 252 255 269 246 248 256 256 269 282 280 284 294 297 299 301 299 297 293
315 308 297 285 272 261 255 253 253 255 256 257 259 258 258 254 239 228 216 205 218 229 218 214 215 218 225 226 219 219 221 218 214 207 207 210 209 207 204 201 201 201 200 203 209 212 217 219 215 218 224 227 232 234 224 211 206 208 211 216 222 229 239 251 261 267 264 254 248 249 251 255 256 257 266 266 257 263 274 277 282 291 296 299 301 301 301 298
311 306 298 289 279 268 258 253 251 253 254 255 257 259 261 260 251 241 227 210 209 220 213 210 210 210 217 223 220 218 216 213 210 208 206 206 205 204 204 204 203 202 203 207 209 211 217 217 208 209 215 218 220 220 213 209 211 216 220 225 235 245 251 258 266 269 267 262 251 243 245 249 252 265 278 272 262 261 265 273 281 289 294 296 296 296 298 299
306 303 298 292 284 275 267 259 253 251 251 251 252 253 257 262 256 246 236 224 217 215 208 204 203 202 204 208 213 218 218 214 215 216 212 210 209 206 204 206 209 208 207 209 210 210 214 215 208 206 212 216 216 214 212 212 219 230 236 241 248 255 260 262 266 267 266 268 262 247 243 247 252 265 276 269 261 259 261 271 281 288 291 292 292 295 297 297
300 299 296 291 286 280 273 265 258 254 251 249 249 248 250 256 257 250 240 229 223 219 206 190 187 189 190 193 201 214 219 217 217 218 214 213 216 215 211 210 212 213 212 213 214 212 213 217 214 207 209 215 213 209 205 199 208 232 238 243 251 256 260 261 262 261 259 258 257 250 244 247 255 263 265 260 257 260 265 274 281 285 288 291 293 296 296 295